Location: Poughquag
(41.6090°N, 73.6820°W)
Time: 06:42:01
(UTC-04:00)

CAS-4B - Visible Passes

Search period start: 03 October 2024 00:00
Search period end: 13 October 2024 00:00
Orbit: 454 x 471 km, 43.0° (Epoch: 02 October)

Date Brightness Start Highest point End Pass type
(mag) Time Alt. Az. Time Alt. Az. Time Alt. Az.
03 Oct ? 04:54:24 62° ENE 04:54:24 62° ENE 04:57:37 10° E visible
04 Oct ? 04:21:38 21° E 04:21:38 21° E 04:23:01 10° E visible
04 Oct ? 05:55:27 19° W 05:57:48 51° SSW 06:01:23 10° SE visible
05 Oct ? 05:22:40 52° SW 05:23:08 57° SSW 05:26:44 10° ESE visible
06 Oct ? 04:49:52 32° SE 04:49:52 32° SE 04:51:59 10° ESE visible
06 Oct ? 06:24:02 10° WSW 06:26:22 16° SW 06:28:42 10° S visible
07 Oct ? 04:17:05 10° ESE 04:17:05 10° ESE 04:17:08 10° ESE visible
07 Oct ? 05:50:54 18° SW 05:51:32 18° SW 05:54:08 10° S visible
08 Oct ? 05:18:07 16° S 05:18:07 16° S 05:19:25 10° SSE visible
